Hourly Data Report for September 12, 2004

SHERBROOKE A
QUEBEC

45°26'00.000" N
71°41'00.000" W
241.40 m
7028124
71610
YSC

Download Data

Hourly Data (September 2004)
Hourly Data Report for September 12, 2004
TIME
LST
Temp Definition
°C
Dew Point Definition
°C
Rel Hum Definition
%
Precip. Amount Definition
mm

Wind Dir Definition
10's deg

Wind Spd Definition
km/h
Visibility Definition
km
Stn Press Definition
kPa
Hmdx Definition


Wind Chill Definition


Weather Definition


00:00 10.7 10.0 95   10 6 15.0 99.34      
01:00 10.7 9.8 94   9 4 15.0 99.33      
02:00 9.6 9.0 96     0 15.0 99.31      
03:00 9.6 9.0 96     0 15.0 99.26      
04:00 8.6 8.0 96     0 1.0 99.24      
05:00 8.3 8.0 98     0 15.0 99.23      
06:00 9.6 8.8 95   9 4 15.0 99.25      
07:00 13.7 11.7 88     0 24.1 99.23     Mainly Clear
08:00 15.8 13.4 86   29 4 24.1 99.22     Mainly Clear
09:00 18.6 14.3 76   23 7 24.1 99.21     Mainly Clear
10:00 20.2 14.3 69   22 11 24.1 99.15     Mainly Clear
11:00 21.6 14.6 64   24 13 24.1 99.08 25   Mainly Clear
12:00 21.5 14.3 64   26 17 24.1 99.06 25   Mostly Cloudy
13:00 21.2 14.0 63   28 13 24.1 99.02 25   Mostly Cloudy
14:00 22.0 14.5 62   26 13 24.1 98.96 26   Mostly Cloudy
15:00 21.7 14.0 62   26 17 24.1 98.92 25   Mostly Cloudy
16:00 20.7 14.4 67   27 11 24.1 98.91     Mostly Cloudy
17:00 20.0 14.8 72   26 9 15.0 98.90      
18:00 18.8 14.4 76   25 7 15.0 98.90      
19:00 16.7 13.9 84     0 15.0 98.96      
20:00 15.2 13.5 90   29 4 15.0 99.01      
21:00 14.5 13.1 91     0 15.0 99.01      
22:00 15.9 13.8 87   26 7 15.0 98.99      
23:00 14.6 12.9 90   32 9 15.0 99.05      

Notes on Data Quality.

Legend

  • E = Estimated
  • M = Missing
  • NA = Not Available*
  • [empty] = Indicates an unobserved value
Date modified: